Regional Weather Roundup
Issued by NWS Charleston, SC

Current Version | Previous Version | Text Only | Print | Product List | Glossary On
Versions: 1 2 3 4 5 6 7 8 9 10 11 12 13 14 15 16 17 18 19 20 21 22 23 24 25 26 27 28 29 30 31 32 33 34 35 36 37 38 39 40 41 42 43 44 45 46 47 48 49 50
000 ASUS42 KCHS 290912 RWRCHS REGIONAL WEATHER ROUNDUP NATIONAL WEATHER SERVICE CHARLESTON SC 500 AM EDT FRI MAY 29 2015 NOTE: "FAIR" INDICATES FEW OR NO CLOUDS BELOW 12,000 FEET WITH NO SIGNIFICANT WEATHER AND/OR OBSTRUCTIONS TO VISIBILITY. NOT ALL STATIONS ARE QUALITY CONTROLLED BY THE NATIONAL WEATHER SERVICE. USE DATA WITH CAUTION...ESPECIALLY DEWPOINT OBSERVATIONS. SCZ027-030-031-034>040-042>050-291000- ...SOUTHEAST SOUTH CAROLINA... CITY SKY/WX TMP DP RH WIND PRES REMARKS N CHARLESTON CLEAR 64 62 93 CALM 30.15F WATERFRONT PAR N/A 74 66 75 NE5 30.13F MOUNT PLEASANT LGT RAIN 63 63 100 CALM 30.16S JOHNS ISLAND SUNNY 64 63 94 CALM 30.15F PINOPOLIS N/A 70 64 83 CALM 30.08S MONCKS CORNER FAIR 61 59 94 CALM 30.16S SUMMERVILLE FAIR 61 61 100 CALM 30.17S BEAUFORT MCAS CLEAR 66 64 93 CALM 30.15S BEAUFORT ARPT FAIR 66 64 94 CALM 30.14S HILTON HEAD IS CLEAR 72 63 73 NE3 30.15S WALTERBORO SUNNY 57 55 94 CALM 30.17R ALLENDALE FAIR 64 63 94 CALM 30.15S ...SOUTHERN MIDLANDS AND PEE DEE... CITY SKY/WX TMP DP RH WIND PRES REMARKS GEORGETOWN NOT AVBL KINGSTREE NOT AVBL ORANGEBURG CLEAR 64 60 87 CALM 30.17S BARNWELL FAIR 64 64 100 CALM 30.17S AIKEN FAIR 64 59 82 CALM 30.20R MANNING FAIR 59 30 33 CALM 30.17S COLUMBIA PTCLDY 68 63 84 E3 30.16S SUMTER CLEAR 64 61 90 NE2 30.16S FLORENCE PTCLDY 64 62 93 CALM 30.18S MYRTLE BEACH CLEAR 64 61 88 CALM 30.19S N MYRTLE BEACH CLEAR 63 61 93 NE3 30.17S $$ GAZ063-065-086>088-099>101-113>116-118-119-134>141-150-291000- ...SOUTHEAST GEORGIA... CITY SKY/WX TMP DP RH WIND PRES REMARKS SAVANNAH ARPT CLEAR 67 64 90 E3 30.13F HUNTER AAF PTCLDY 67 66 96 N1 30.11S FORT STEWART CLEAR 64 62 93 CALM 30.11F STATESBORO CLEAR 62 32 32 CALM 30.14S SYLVANIA SUNNY 64 64 99 CALM 30.16S CLAXTON FAIR 59 59 100 CALM 30.14R ...CSRA...CENTRAL AND FAR SOUTHEAST GEORGIA... CITY SKY/WX TMP DP RH WIND PRES REMARKS THOMSON CLEAR 69 68 96 CALM 30.19S AUGUSTA-BUSH CLEAR 65 62 90 CALM 30.15R AUGUSTA-DANIEL CLEAR 69 61 75 E5 30.17R SWAINSBORO FAIR N/A N/A N/A E3 30.15R VIDALIA PTCLDY 64 63 94 CALM 30.14R EASTMAN FAIR 63 63 100 CALM 30.15S FOG HAZLEHURST FAIR 68 67 96 E5 30.12S ALMA PTCLDY 61 60 97 NE3 30.12S FOG WAYCROSS CLEAR 62 62 99 CALM 30.12S JESUP FAIR 64 64 100 CALM 30.13R BAXLEY FAIR 63 61 94 CALM 30.13R BRUNSWICK N/A 63 61 94 CALM 30.12F SAINT SIMONS NOT AVBL $$ SCZ027-028-034-036>038-045-046-048>050-GAZ119-141-291000- ...LAKE AND SUPPLEMENTAL COASTAL OBSERVATIONS... STATION/POSITION TIME TEMP WIND PRES WAVE SWELL AIR SEA DIR/SP/G HT/PER HT/PER/DIR (UTC) (F) (DEG/KT/KT) (MB) (FT/S) (FT/S/D) UPR LAKE MARION NOT AVBL WINYAH BAY 0745 65 310/ 2 1020.0 LAKE MURRAY 0800 73 150/ 9/ 12 1021.0F ACE BASIN NERRS NOT AVBL FORT PULASKI 0800 75 79 100/ 9/ 13 1020.9F SAPELO ISLAND 0800 67 90/ 2 1020.0S $$ ANZ835-935-AMZ111-154-330-350-352-354-370-450-454-472-291000- ...C-MAN AND BUOY OBSERVATIONS... STATION/POSITION TIME TEMP WIND PRES WAVE SWELL AIR SEA DIR/SP/G HT/PER HT/PER/DIR (UTC) (F) (DEG/KT/KT) (MB) (FT/S) (FT/S/D) BUOY 41004 0850 76 78 70/ 6/ 8 1020.4F 4/ 8 3/ 8 BUOY 41008 0850 77 78 100/ 12/ 16 1019.9F 3/ 9 2/100/ 9 FOLLY BEACH CMAN 0900 75 100/ 8/ 9 1020.9F CAPERS NEARSHORE 0808 76 110/ 8/ 12 1021.2F FRIPP NEARSHORE 0800 76 100/ 10/ 12 1020.3F STATION/POSITION TIME TEMP WIND PRES WAVE SWELL AIR SEA DIR/SP/G HT/PER HT/PER/DIR (UTC) (F) (DEG/KT/KT) (MB) (FT/S) (FT/S/D) 5E ST. MARYS GA 0821 79 N/A 3/ 8 FRYING PAN BUOY 0850 76 75 60/ 10/ 12 1022.2S 4/10 3/130/10 BUOY 41025 0750 75 77 100/ 2/ 4 1022.9 4/ 9 3/100/ 9 CAPE LOOKOUT NC 0900 72 40/ 2/ 2 1022.4F BUOY 41002 0850 74 74 80/ 14/ 17 1020.8F 5/10 3/ 80/10 BUOY 41010 0820 77 81 70/ 12/ 14 1018.4F ST AUGUSTINE FL 0900 76 78 90/ 13/ 14 1019.8F $$

USA.gov is the U.S. government's official web portal to all federal, state and local government web resources and services.